Date String (YYYY-MM-DD hh:mm:ss) UTC,Instrument flags,Ambient pressure (hPa),Sample flow (lpm),Bypass flow (lpm),Sample temperature (°C),Ambient temperature (°C),ASC tube jacket temperature (°C),LED temperature (°C),Box temperature (°C),Sample RH (%),Span deviation,Mass concentration (μg/m³),Mass concentration (μg/m³),Mass concentration (μg/m³)
DateTimeUTC,F1_M11,P_M11,Q1_M11,Q2_M11,T1_M11,T2_M11,T3_M11,T4_M11,T5_M11,U1_M11,ZSPAN_M11,X0_M11,X2_M11,X1_M11
2021-11-06 03:00:00,,0827.7,5.00,0.00,30.1,29.3,00.0,39.2,31.9,08.0,0000.0,0008.32,0001.65,0001.08
2021-11-06 03:01:00,,0827.7,5.00,0.00,30.1,29.3,00.0,39.1,31.9,08.0,0000.0,0008.01,0001.69,0001.08
2021-11-06 03:02:00,,0827.8,5.01,0.00,30.2,29.3,00.0,39.2,31.9,08.0,0000.0,0006.72,0001.69,0001.09
2021-11-06 03:03:00,,0827.8,5.00,0.00,30.2,29.3,00.0,39.2,31.9,07.9,0000.0,0006.82,0001.72,0001.10
2021-11-06 03:04:00,,0827.8,4.98,0.00,30.2,29.3,00.0,39.2,31.9,07.8,0000.0,0006.92,0001.74,0001.09
2021-11-06 03:05:00,,0827.9,5.00,0.00,30.2,29.3,00.0,39.2,31.9,07.8,0000.0,0006.99,0001.70,0001.07
2021-11-06 03:06:00,,0827.9,5.02,0.00,30.2,29.3,00.0,39.2,31.9,07.9,0000.0,0006.95,0001.71,0001.06
2021-11-06 03:07:00,,0827.8,4.99,0.00,30.2,29.4,00.0,39.2,31.9,08.0,0000.0,0006.89,0001.75,0001.06
2021-11-06 03:08:00,,0827.9,4.99,0.00,30.2,29.4,00.0,39.2,31.9,07.9,0000.0,0005.56,0001.75,0001.05
2021-11-06 03:09:00,,0828.0,5.01,0.00,30.2,29.4,00.0,39.2,31.9,07.9,0000.0,0004.82,0001.74,0001.03
2021-11-06 03:10:00,,0827.9,5.00,0.00,30.2,29.4,00.0,39.2,32.0,07.9,0000.0,0004.38,0001.71,0001.02
2021-11-06 03:11:00,,0828.0,4.99,0.00,30.2,29.4,00.0,39.2,32.0,07.9,0000.0,0004.81,0001.68,0001.01
2021-11-06 03:12:00,,0827.9,5.01,0.00,30.2,29.4,00.0,39.2,32.0,07.9,0000.0,0004.88,0001.62,0001.01
2021-11-06 03:13:00,,0828.0,5.00,0.00,30.2,29.5,00.0,39.2,32.0,07.9,0000.0,0004.90,0001.66,0001.02
2021-11-06 03:14:00,,0827.9,5.00,0.00,30.3,29.5,00.0,39.2,32.0,07.9,0000.0,0004.80,0001.63,0001.02
2021-11-06 03:15:00,,0828.0,5.00,0.00,30.3,29.5,00.0,39.2,32.0,07.9,0000.0,0004.78,0001.63,0001.03
2021-11-06 03:16:00,,0827.9,4.99,0.00,30.3,28.4,00.0,39.2,31.8,07.9,0000.0,0004.37,0001.65,0001.03
2021-11-06 03:17:00,,0827.9,5.01,0.00,30.1,26.4,00.0,39.2,31.3,07.9,0000.0,0005.26,0001.67,0001.05
2021-11-06 03:18:00,,0827.9,4.99,0.00,30.0,26.2,00.0,39.2,31.3,08.0,0000.0,0005.59,0001.64,0001.04
2021-11-06 03:19:00,,0828.0,5.00,0.00,29.9,26.5,00.0,39.1,31.3,08.0,0000.0,0005.67,0001.62,0001.04
2021-11-06 03:20:00,,0828.0,5.00,0.00,29.8,27.0,00.0,39.0,31.2,08.1,0000.0,0005.56,0001.58,0001.03
2021-11-06 03:21:00,,0828.0,5.01,0.00,29.8,27.4,00.0,39.0,31.2,08.1,0000.0,0005.20,0001.57,0001.03
2021-11-06 03:22:00,,0827.9,4.99,0.00,29.8,27.7,00.0,38.9,31.3,08.1,0000.0,0004.67,0001.55,0001.02
2021-11-06 03:23:00,,0827.9,5.01,0.00,29.8,27.9,00.0,38.9,31.3,08.2,0000.0,0004.40,0001.55,0001.00
2021-11-06 03:24:00,,0828.0,5.00,0.00,29.8,28.1,00.0,38.9,31.3,08.2,0000.0,0004.29,0001.49,0000.98
2021-11-06 03:25:00,,0828.0,5.01,0.00,29.8,28.3,00.0,38.9,31.4,08.2,0000.0,0004.42,0001.47,0000.97
2021-11-06 03:26:00,,0827.9,4.99,0.00,29.8,28.4,00.0,38.9,31.4,08.3,0000.0,0005.36,0001.46,0000.96
2021-11-06 03:27:00,,0828.0,5.00,0.00,29.8,28.5,00.0,38.9,31.4,08.2,0000.0,0005.17,0001.42,0000.94
2021-11-06 03:28:00,,0827.9,5.01,0.00,29.8,28.5,00.0,38.9,31.4,08.3,0000.0,0004.33,0001.37,0000.93
2021-11-06 03:29:00,,0828.0,4.99,0.00,29.8,28.6,00.0,38.9,31.4,08.2,0000.0,0003.77,0001.38,0000.92
2021-11-06 03:30:00,,0828.0,5.00,0.00,29.8,28.6,00.0,38.9,31.5,08.2,0000.0,0003.63,0001.36,0000.92
2021-11-06 03:31:00,,0828.0,5.02,0.00,29.8,28.6,00.0,38.9,31.5,08.3,0000.0,0004.12,0001.33,0000.92
2021-11-06 03:32:00,,0828.1,5.00,0.00,29.8,28.6,00.0,38.9,31.5,08.3,0000.0,0004.72,0001.34,0000.94
2021-11-06 03:33:00,,0828.0,4.99,0.00,29.8,28.6,00.0,38.9,31.5,08.3,0000.0,0004.82,0001.36,0000.95
2021-11-06 03:34:00,,0828.0,5.00,0.00,29.9,28.7,00.0,38.9,31.5,08.2,0000.0,0004.84,0001.39,0000.97
2021-11-06 03:35:00,,0828.0,5.01,0.00,29.9,28.7,00.0,38.9,31.5,08.3,0000.0,0004.86,0001.41,0000.98
2021-11-06 03:36:00,,0828.0,5.00,0.00,29.9,28.7,00.0,38.9,31.5,08.3,0000.0,0004.81,0001.42,0000.98
2021-11-06 03:37:00,,0828.1,5.00,0.00,29.9,28.7,00.0,38.9,31.5,08.1,0000.0,0004.41,0001.41,0000.98
2021-11-06 03:38:00,,0828.0,4.99,0.00,29.9,28.6,00.0,38.9,31.5,08.1,0000.0,0004.89,0001.47,0000.99
2021-11-06 03:39:00,,0828.1,5.00,0.00,29.9,28.6,00.0,38.9,31.5,08.2,0000.0,0004.95,0001.51,0001.01
2021-11-06 03:40:00,,0828.1,4.99,0.00,29.9,28.7,00.0,38.9,31.5,08.2,0000.0,0004.98,0001.54,0001.02
2021-11-06 03:41:00,,0828.1,5.02,0.00,29.9,28.7,00.0,38.9,31.5,08.2,0000.0,0004.99,0001.60,0001.04
2021-11-06 03:42:00,,0828.1,5.00,0.00,29.9,28.7,00.0,38.9,31.5,08.2,0000.0,0004.92,0001.67,0001.06
2021-11-06 03:43:00,,0828.1,5.00,0.00,29.9,28.7,00.0,38.9,31.5,08.2,0000.0,0003.97,0001.67,0001.06
2021-11-06 03:44:00,,0828.1,4.99,0.00,29.9,28.7,00.0,38.9,31.5,08.1,0000.0,0003.93,0001.67,0001.06
2021-11-06 03:45:00,,0828.1,5.01,0.00,29.8,28.7,00.0,38.9,31.5,08.2,0000.0,0004.72,0001.68,0001.06
2021-11-06 03:46:00,,0828.2,4.99,0.00,29.9,28.7,00.0,38.9,31.5,08.2,0000.0,0004.74,0001.65,0001.04
2021-11-06 03:47:00,,0828.1,5.00,0.00,29.9,28.7,00.0,38.9,31.5,08.3,0000.0,0004.65,0001.63,0001.04
2021-11-06 03:48:00,,0828.1,5.00,0.00,29.8,28.7,00.0,38.9,31.4,08.2,0000.0,0004.32,0001.64,0001.04
2021-11-06 03:49:00,,0828.2,5.00,0.00,29.8,28.7,00.0,38.9,31.4,08.2,0000.0,0003.60,0001.61,0001.04
2021-11-06 03:50:00,,0828.1,5.01,0.00,29.8,28.7,00.0,38.9,31.5,08.2,0000.0,0003.63,0001.62,0001.04
2021-11-06 03:51:00,,0828.2,5.01,0.00,29.8,28.7,00.0,38.9,31.5,08.3,0000.0,0003.52,0001.59,0001.05
2021-11-06 03:52:00,,0828.2,4.98,0.00,29.8,28.8,00.0,38.9,31.5,08.3,0000.0,0003.44,0001.57,0001.06
2021-11-06 03:53:00,,0828.2,5.01,0.00,29.8,28.8,00.0,38.9,31.4,08.3,0000.0,0004.39,0001.56,0001.08
2021-11-06 03:54:00,,0828.2,5.00,0.00,29.8,28.8,00.0,38.9,31.4,08.3,0000.0,0004.42,0001.60,0001.12
2021-11-06 03:55:00,,0828.2,4.98,0.00,29.8,28.8,00.0,38.9,31.4,08.2,0000.0,0004.51,0001.66,0001.16
2021-11-06 03:56:00,,0828.2,5.01,0.00,29.8,28.7,00.0,38.9,31.4,08.2,0000.0,0003.89,0001.78,0001.23
2021-11-06 03:57:00,,0828.3,4.99,0.00,29.8,28.8,00.0,38.9,31.4,08.3,0000.0,0004.19,0001.94,0001.30
2021-11-06 03:58:00,,0828.2,5.02,0.00,29.8,28.8,00.0,38.9,31.4,08.3,0000.0,0004.42,0002.05,0001.36
2021-11-06 03:59:00,,0828.2,4.99,0.00,29.8,28.7,00.0,38.9,31.4,08.3,0000.0,0004.79,0002.19,0001.41
